Latest Weather Observations for Little Bay

IDN60801

Issued at 5:05 pm EST Thursday 17 April 2014 (issued every 30 minutes, with the page automatically refreshed every 10 minutes)

About weather observations | Map of weather stations | Latest weather observations for NSW | Other Formats
Station Details ID: 066051 Name: LITTLE BAY (THE COAST GOLF CLUB) Lat: -33.98 Lon: 151.25 Height: 22.0 m
Data from the previous 72 hours. | See also: Recent months for locations in New South Wales
Date/Time
EST
Temp
°C
App
Temp
°C
Dew
Point
Rel
Hum
%
Delta-T
°C
Wind Press
QNH
hPa
Press
MSL
hPa
Rain
since 9 am
mm
Dir
 
Spd
km/h
Gust
km/h
Spd
kts
Gust
kts
17/05:00pm - - - - - S 28 37 15 20 - - -
17/04:30pm - - - - - S 26 37 14 20 - - -
17/04:00pm - - - - - S 30 41 16 22 - - -
17/03:30pm - - - - - S 30 39 16 21 - - -
17/03:00pm - - - - - S 28 37 15 20 - - -
17/02:30pm - - - - - S 28 35 15 19 - - -
17/02:00pm - - - - - S 22 32 12 17 - - -
17/01:30pm - - - - - S 22 30 12 16 - - -
17/01:00pm - - - - - S 22 30 12 16 - - -
17/12:30pm - - - - - S 28 35 15 19 - - -
17/12:00pm - - - - - SSW 26 37 14 20 - - -
17/11:30am - - - - - SSW 22 32 12 17 - - -
17/11:00am - - - - - S 24 37 13 20 - - -
17/10:30am - - - - - SSW 24 33 13 18 - - -
17/10:00am - - - - - S 22 35 12 19 - - -
17/09:30am - - - - - SSW 20 30 11 16 - - -
17/09:00am - - - - - W 11 15 6 8 - - -
17/08:30am - - - - - W 11 17 6 9 - - -
17/08:00am - - - - - W 15 19 8 10 - - -
17/07:30am - - - - - WNW 13 17 7 9 - - -
17/07:00am - - - - - WNW 13 17 7 9 - - -
17/06:30am - - - - - WNW 13 17 7 9 - - -
17/06:00am - - - - - W 15 19 8 10 - - -
17/05:30am - - - - - WNW 15 20 8 11 - - -
17/05:00am - - - - - W 15 19 8 10 - - -
17/04:30am - - - - - W 9 15 5 8 - - -
17/04:00am - - - - - WNW 13 19 7 10 - - -
17/03:30am - - - - - WNW 15 20 8 11 - - -
17/03:00am - - - - - WNW 17 22 9 12 - - -
17/02:30am - - - - - WNW 13 17 7 9 - - -
17/02:00am - - - - - WNW 13 17 7 9 - - -
17/01:30am - - - - - WNW 11 15 6 8 - - -
17/01:00am - - - - - WNW 9 13 5 7 - - -
17/12:30am - - - - - W 11 15 6 8 - - -
17/12:00am - - - - - WNW 11 15 6 8 - - -
 
Date/Time
EST
Temp
°C
App
Temp
°C
Dew
Point
Rel
Hum
%
Delta-T
°C
Wind Press
QNH
hPa
Press
MSL
hPa
Rain
since 9 am
mm
Dir
 
Spd
km/h
Gust
km/h
Spd
kts
Gust
kts
16/11:30pm - - - - - W 7 13 4 7 - - -
16/11:00pm - - - - - WSW 11 19 6 10 - - -
16/10:30pm - - - - - WSW 11 15 6 8 - - -
16/10:00pm - - - - - WSW 11 15 6 8 - - -
16/09:30pm - - - - - WSW 11 15 6 8 - - -
16/09:00pm - - - - - SW 13 19 7 10 - - -
16/08:30pm - - - - - S 20 28 11 15 - - -
16/08:00pm - - - - - S 24 33 13 18 - - -
16/07:30pm - - - - - S 24 35 13 19 - - -
16/07:00pm - - - - - S 24 37 13 20 - - -
16/06:30pm - - - - - S 28 37 15 20 - - -
16/06:00pm - - - - - S 28 35 15 19 - - -
16/05:30pm - - - - - S 28 37 15 20 - - -
16/05:00pm - - - - - S 26 35 14 19 - - -
16/04:30pm - - - - - S 26 35 14 19 - - -
16/04:00pm - - - - - S 26 37 14 20 - - -
16/03:30pm - - - - - S 30 43 16 23 - - -
16/03:00pm - - - - - S 28 39 15 21 - - -
16/02:30pm - - - - - S 30 41 16 22 - - -
16/02:00pm - - - - - SSW 28 41 15 22 - - -
16/01:30pm - - - - - S 28 39 15 21 - - -
16/01:00pm - - - - - S 24 35 13 19 - - -
16/12:30pm - - - - - SSW 28 39 15 21 - - -
16/12:00pm - - - - - SSW 28 37 15 20 - - -
16/11:30am - - - - - SSW 30 41 16 22 - - -
16/11:00am - - - - - SSW 30 43 16 23 - - -
16/10:30am - - - - - SSW 28 39 15 21 - - -
16/10:00am - - - - - SSW 24 35 13 19 - - -
16/09:30am - - - - - SSW 24 35 13 19 - - -
16/09:00am - - - - - SSW 24 33 13 18 - - -
16/08:30am - - - - - SSW 22 33 12 18 - - -
16/08:00am - - - - - SSW 22 32 12 17 - - -
16/07:30am - - - - - SW 20 32 11 17 - - -
16/07:00am - - - - - SW 19 28 10 15 - - -
16/06:30am - - - - - SSW 24 37 13 20 - - -
16/06:00am - - - - - SSW 26 35 14 19 - - -
16/05:30am - - - - - SSW 24 35 13 19 - - -
16/05:00am - - - - - SSW 26 35 14 19 - - -
16/04:30am - - - - - SSW 26 37 14 20 - - -
16/04:00am - - - - - SSW 26 39 14 21 - - -
16/03:30am - - - - - SSW 26 35 14 19 - - -
16/03:00am - - - - - SSW 30 44 16 24 - - -
16/02:30am - - - - - SSW 30 41 16 22 - - -
16/02:00am - - - - - SSW 28 37 15 20 - - -
16/01:30am - - - - - SSW 30 41 16 22 - - -
16/01:00am - - - - - SSW 26 35 14 19 - - -
16/12:30am - - - - - SSW 24 41 13 22 - - -
16/12:00am - - - - - SW 17 28 9 15 - - -
 
Date/Time
EST
Temp
°C
App
Temp
°C
Dew
Point
Rel
Hum
%
Delta-T
°C
Wind Press
QNH
hPa
Press
MSL
hPa
Rain
since 9 am
mm
Dir
 
Spd
km/h
Gust
km/h
Spd
kts
Gust
kts
15/11:30pm - - - - - SSW 19 30 10 16 - - -
15/11:00pm - - - - - SSW 28 41 15 22 - - -
15/10:30pm - - - - - S 37 56 20 30 - - -
15/10:28pm - - - - - S 37 56 20 30 - - -
15/10:00pm - - - - - S 20 35 11 19 - - -
15/09:30pm - - - - - S 26 37 14 20 - - -
15/09:03pm - - - - - S 30 48 16 26 - - -
15/09:00pm - - - - - S 28 41 15 22 - - -
15/08:30pm - - - - - S 35 48 19 26 - - -
15/08:00pm - - - - - S 35 48 19 26 - - -
15/07:30pm - - - - - S 33 67 18 36 - - -
15/07:27pm - - - - - S 28 67 15 36 - - -
15/07:00pm - - - - - SW 19 26 10 14 - - -
15/06:30pm - - - - - S 26 37 14 20 - - -
15/06:00pm - - - - - S 33 44 18 24 - - -
15/05:30pm - - - - - S 37 48 20 26 - - -
15/05:21pm - - - - - S 28 48 15 26 - - -
15/05:00pm - - - - - S 26 37 14 20 - - -
15/04:30pm - - - - - S 20 28 11 15 - - -
15/04:00pm - - - - - SSE 28 35 15 19 - - -
15/03:30pm - - - - - SSE 32 44 17 24 - - -
15/03:00pm - - - - - SSE 35 48 19 26 - - -
15/02:58pm - - - - - SSE 37 48 20 26 - - -
15/02:30pm - - - - - SSW 32 43 17 23 - - -
15/02:00pm - - - - - SSW 33 44 18 24 - - -
15/01:30pm - - - - - SSW 28 39 15 21 - - -
15/01:00pm - - - - - SSW 24 35 13 19 - - -
15/12:30pm - - - - - SSW 24 35 13 19 - - -
15/12:00pm - - - - - SSW 22 35 12 19 - - -
15/11:30am - - - - - SSW 20 32 11 17 - - -
15/11:00am - - - - - SSW 20 28 11 15 - - -
15/10:30am - - - - - SSW 22 32 12 17 - - -
15/10:00am - - - - - SSW 19 28 10 15 - - -
15/09:30am - - - - - SW 20 28 11 15 - - -
15/09:00am - - - - - W 13 20 7 11 - - -
15/08:30am - - - - - W 11 17 6 9 - - -
15/08:00am - - - - - WNW 13 17 7 9 - - -
15/07:30am - - - - - W 13 19 7 10 - - -
15/07:00am - - - - - WSW 9 17 5 9 - - -
15/06:30am - - - - - SSW 19 28 10 15 - - -
15/06:00am - - - - - SSW 28 37 15 20 - - -
15/05:30am - - - - - SSW 20 33 11 18 - - -
15/05:00am - - - - - SSW 26 35 14 19 - - -
15/04:30am - - - - - SSW 24 33 13 18 - - -
15/04:00am - - - - - SW 13 22 7 12 - - -
15/03:30am - - - - - WSW 9 13 5 7 - - -
15/03:00am - - - - - WSW 11 17 6 9 - - -
15/02:30am - - - - - WSW 11 20 6 11 - - -
15/02:00am - - - - - SSW 20 30 11 16 - - -
15/01:30am - - - - - S 17 24 9 13 - - -
15/01:00am - - - - - SSE 24 32 13 17 - - -
15/12:30am - - - - - S 22 33 12 18 - - -
15/12:00am - - - - - S 19 32 10 17 - - -
 
Date/Time
EST
Temp
°C
App
Temp
°C
Dew
Point
Rel
Hum
%
Delta-T
°C
Wind Press
QNH
hPa
Press
MSL
hPa
Rain
since 9 am
mm
Dir
 
Spd
km/h
Gust
km/h
Spd
kts
Gust
kts
14/11:30pm - - - - - S 19 26 10 14 - - -
14/11:00pm - - - - - W 11 17 6 9 - - -
14/10:30pm - - - - - SSE 15 24 8 13 - - -
14/10:00pm - - - - - SSE 20 30 11 16 - - -
14/09:30pm - - - - - SW 11 17 6 9 - - -
14/09:00pm - - - - - WNW 11 15 6 8 - - -
14/08:30pm - - - - - SW 6 11 3 6 - - -
14/08:00pm - - - - - SW 19 26 10 14 - - -
14/07:30pm - - - - - SSE 24 33 13 18 - - -
14/07:00pm - - - - - WSW 13 19 7 10 - - -
14/06:30pm - - - - - WSW 9 15 5 8 - - -
14/06:00pm - - - - - SW 17 24 9 13 - - -
14/05:30pm - - - - - SSW 15 22 8 12 - - -

Other Formats:

Comma delimited format used in spreadsheet applications
http://www.bom.gov.au/fwo/IDN60801/IDN60801.94780.axf

JavaScript Object Notation format (JSON) in row-major order
http://www.bom.gov.au/fwo/IDN60801/IDN60801.94780.json